Location: Columbia
(38.9520°N, 92.3340°W)
Time: 04:14:51
(UTC-05:00)

Cosmos 2219 Rocket - Visible Passes

Search period start: 29 June 2016 00:00
Search period end: 09 July 2016 00:00
Orbit: 830 x 845 km, 71.0° (Epoch: 28 June)

Date Brightness Start Highest point End Pass type
(mag) Time Alt. Az. Time Alt. Az. Time Alt. Az.
29 Jun 4.2 00:28:36 10° WNW 00:31:37 15° W 00:32:19 15° WSW visible
29 Jun 2.3 22:26:26 10° NNW 22:32:00 62° ENE 22:34:43 30° SE visible
30 Jun 4.1 00:12:00 10° WNW 00:15:21 16° W 00:16:27 15° WSW visible
30 Jun 2.4 22:10:08 10° NNW 22:15:40 58° ENE 22:18:54 25° SE visible
30 Jun 4.1 23:55:26 10° WNW 23:59:03 18° W 00:00:37 16° WSW visible
01 Jul 2.5 21:53:50 10° NNW 21:59:19 53° ENE 22:03:06 20° SE visible
01 Jul 4.0 23:38:54 10° NW 23:42:47 19° W 23:44:50 16° SW visible
02 Jul 2.6 21:37:31 10° NNW 21:42:57 49° ENE 21:47:22 15° SE visible
02 Jul 4.0 23:22:24 10° NW 23:26:29 21° W 23:29:05 15° SW visible
03 Jul 2.7 21:21:14 10° N 21:26:36 45° ENE 21:31:39 12° SE visible
03 Jul 4.0 23:05:55 10° NW 23:10:12 23° W 23:13:24 14° SW visible
04 Jul 2.8 21:04:56 10° N 21:10:15 42° ENE 21:15:33 10° SE visible
04 Jul 3.9 22:49:26 10° NW 22:53:55 25° WSW 22:57:45 13° SSW visible
05 Jul 3.8 22:32:59 10° NW 22:37:37 27° WSW 22:42:08 10° SSW visible
06 Jul 3.7 22:16:33 10° NW 22:21:19 29° WSW 22:26:05 10° SSW visible
07 Jul 3.7 22:00:07 10° NW 22:05:01 32° WSW 22:09:55 10° SSW visible
08 Jul 3.6 21:43:42 10° NW 21:48:43 35° WSW 21:53:44 10° SSW visible
